This demonstration page uses our WeatherBlox Daily Observations layout. Learn more.

Left ArrowRight Arrow

39.08367, -84.50855

Hourly Observations for March 17, 2019

Temp ( °F °C ) Dew Point ( °F °C ) Humidity (%) Winds ( mph kmh ) Pressure ( in mb ) Visibility ( mi km ) Precip ( " mm )
12:53 am 00:53 Clear 31 -0.6 26 -3.3 82 82 N N/A 30.35 1028 10 16 N/A
1:53 am 01:53 Clear 30 -1.1 26 -3.3 85 85 N N/A 30.34 1027 10 16 N/A
2:53 am 02:53 Clear 29 -1.7 26 -3.3 89 89 N N/A 30.34 1027 10 16 N/A
3:53 am 03:53 Clear 28 -2.2 26 -3.3 92 92 N N/A 30.33 1027 10 16 N/A
4:53 am 04:53 Clear 28 -2.2 25 -3.9 88 88 VRB 5 7 30.31 1026 10 16 N/A
5:53 am 05:53 Clear 27 -2.8 25 -3.9 92 92 N N/A 30.32 1027 9 14 N/A
6:53 am 06:53 Clear 28 -2.2 24 -4.4 85 85 N N/A 30.32 1027 10 16 N/A
7:53 am 07:53 Sunny 27 -2.8 24 -4.4 89 89 N N/A 30.34 1027 10 16 N/A
8:53 am 08:53 Cloudy 29 -1.7 26 -3.3 89 89 VRB 3 6 30.33 1027 10 16 N/A
9:53 am 09:53 Cloudy 32 undefined 28 -2.2 85 85 N N/A 30.34 1027 10 16 N/A
10:53 am 10:53 Cloudy 35 1.7 29 -1.7 78 78 N N/A 30.33 1027 10 16 N/A
11:53 am 11:53 Cloudy 39 3.9 28 -2.2 65 65 N N/A 30.31 1026 10 16 N/A
12:53 pm 12:53 Mostly Cloudy 43 6.1 27 -2.8 53 53 S 7 11 30.29 1026 10 16 N/A
1:53 pm 13:53 Cloudy 46 7.8 25 -3.9 44 44 VRB 5 7 30.26 1025 10 16 N/A
2:53 pm 14:53 Mostly Cloudy 49 9.4 27 -2.8 43 43 S 13 20 30.20 1023 10 16 N/A
3:53 pm 15:53 Cloudy 50 10 26 -3.3 39 39 SSW 8 13 30.18 1022 10 16 N/A
4:53 pm 16:53 Mostly Cloudy 50 10 25 -3.9 38 38 SW 12 19 30.16 1021 10 16 N/A
5:53 pm 17:53 Cloudy 49 9.4 27 -2.8 43 43 WSW 13 20 30.16 1021 10 16 N/A
6:53 pm 18:53 Mostly Cloudy 50 10 26 -3.3 39 39 VRB 6 9 30.17 1022 10 16 N/A
7:53 pm 19:53 Partly Cloudy 45 7.2 31 -0.6 58 58 N 12 19 30.22 1023 10 16 N/A
8:53 pm 20:53 Mostly Clear 42 5.6 32 undefined 68 68 N 10 17 30.24 1024 10 16 N/A
9:53 pm 21:53 Partly Cloudy 39 3.9 31 -0.6 73 73 VRB 5 7 30.28 1025 10 16 N/A
10:53 pm 22:53 Mostly Cloudy 39 3.9 31 -0.6 73 73 N 8 13 30.29 1026 10 16 N/A
11:53 pm 23:53 Cloudy 39 3.9 31 -0.6 73 73 N 9 15 30.31 1026 10 16 N/A

Powered by AerisWeather